This is the latest recevied weather packets stored in our database for station/object SQ5LTL-2. If no packets are shown the sender has not sent any weather packets the latest 10 day(s).
| Time | Temp. | Humidity | Pressure | Rain* | Wind** | Luminosity | Snow |
|---|---|---|---|---|---|---|---|
| 1777311336 | 10° C | 40% | 1021.1 hPa | 0 mm | - | 9 W/m² | - |
| 1777310733 | 10.56° C | 39% | 1021.1 hPa | 0 mm | - | 12 W/m² | - |
| 1777310431 | 10.56° C | 40% | 1021 hPa | 0 mm | - | 14 W/m² | - |
| 1777308622 | 11.11° C | 37% | 1020.9 hPa | 0 mm | - | 25 W/m² | - |
| 1777307718 | 11.67° C | 36% | 1020.9 hPa | 0 mm | - | 38 W/m² | - |
| 1777307135 | 12.22° C | 34% | 1020.8 hPa | 0 mm | - | 59 W/m² | - |
| 1777306835 | 12.22° C | 33% | 1020.7 hPa | 0 mm | - | 56 W/m² | - |
| 1777306231 | 12.78° C | 32% | 1020.5 hPa | 0 mm | - | 91 W/m² | - |
| 1777305629 | 12.78° C | 32% | 1020.7 hPa | 0 mm | - | 85 W/m² | - |
| 1777305326 | 12.78° C | 31% | 1020.7 hPa | 0 mm | - | 89 W/m² | - |
| 1777305025 | 12.78° C | 31% | 1020.6 hPa | 0 mm | - | 98 W/m² | - |
| 1777304120 | 13.33° C | 29% | 1020.7 hPa | 0 mm | - | 165 W/m² | - |
| 1777303819 | 13.33° C | 28% | 1020.6 hPa | 0 mm | - | 167 W/m² | - |
| 1777303519 | 13.89° C | 27% | 1020.7 hPa | 0 mm | - | 180 W/m² | - |
| 1777303216 | 13.33° C | 27% | 1020.7 hPa | 0 mm | - | 185 W/m² | - |
| 1777302030 | 13.89° C | 26% | 1020.8 hPa | 0 mm | - | 219 W/m² | - |
| 1777301427 | 13.89° C | 25% | 1020.8 hPa | 0 mm | - | 243 W/m² | - |
| 1777300826 | 13.89° C | 25% | 1020.8 hPa | 0 mm | - | 269 W/m² | - |
| 1777300524 | 13.89° C | 25% | 1020.8 hPa | 0 mm | - | 281 W/m² | - |
| 1777300223 | 13.89° C | 25% | 1020.8 hPa | 0 mm | - | 289 W/m² | - |
| 1777299921 | 13.89° C | 24% | 1020.9 hPa | 0 mm | - | 300 W/m² | - |
| 1777299619 | 13.89° C | 25% | 1020.9 hPa | 0 mm | - | 313 W/m² | - |
| 1777299317 | 13.89° C | 26% | 1020.8 hPa | 0 mm | - | 326 W/m² | - |
| 1777299017 | 13.89° C | 25% | 1020.9 hPa | 0 mm | - | 339 W/m² | - |
| 1777298735 | 13.89° C | 25% | 1021 hPa | 0 mm | - | 350 W/m² | - |
* Rain latest hour (hover to see other rain measurements)
** Current wind speed in m/s (hover to see current wind gust speed)